Flag for China Weather past 2 weeks in Hohhot, Inner Mongolia, China

Now
68 °F

Passing clouds.


Feels Like: 68 °F
Forecast: 62 / 88 °F
Wind: 1 mph from North

Location: Hohhot Airport

Current Time: Jul 29, 2015 at 9:16:30 AM

Latest Report: Jul 29, 2015 at 8:00 AM


Visibility: 4 mi

Pressure: 29.77 "Hg (26.33 "Hg at 1053m altitude)

Humidity: 83%

Dew point: 63 °F

Location of HohhotLocation

Historic Weather in Hohhot — Graph

°F

Hohhot temperature yesterday

Maximum temperature yesterday: 82 °F (at 3:00 PM)
Minimum temperature yesterday: 63 °F (at 5:00 AM)
Average temperature yesterday: 73 °F

Past Weeks' High & Low Weather Summary

 TemperatureHumidityPressure
High93 °F (Jul 27, 4:00 PM)94% (Jul 17, 2:00 AM)29.89 "Hg (Jul 17, 2:00 AM)
Low57 °F (Jul 16, 3:00 AM)22% (Jul 14, 3:00 PM)29.65 "Hg (Jul 28, 5:00 PM)
Average71 °F60%29.80 "Hg
* Reported Jul 14 8:00 AM — Jul 29 8:00 AM, Hohhot, Weather by CustomWeather, © 2015

Note: Actual official high and low records may vary slightly from our data, if they occured in-between our weather recording intervals... More about our weather records

Advertising

Hohhot weather history for previous 24 hours

 ConditionsComfort  
Time TempWeatherWind HumidityBarometerVisibility
8:00 AM
Wed, Jul 29
68 °FPassing clouds.1 mph83%29.77 "Hg4 mi
7:00 AM66 °FPassing clouds.3 mph88%29.74 "Hg4 mi
6:00 AM66 °FPassing clouds.6 mph78%29.71 "HgN/A
5:00 AM64 °FPassing clouds.1 mph88%29.71 "HgN/A
4:00 AM68 °FPassing clouds.6 mph73%29.71 "HgN/A
3:00 AM68 °FThunderstorms. Passing clouds.1 mph83%29.74 "HgN/A
2:00 AM68 °FPassing clouds.6 mph78%29.74 "HgN/A
1:00 AM66 °FPassing clouds.8 mph83%29.71 "HgN/A
12:00 AM68 °FPassing clouds.8 mph78%29.71 "HgN/A
11:00 PM
Tue, Jul 28
70 °FThunderstorms. Passing clouds.8 mph73%29.74 "HgN/A
10:00 PM70 °FThunderstorms. Passing clouds.15 mph64%29.71 "HgN/A
9:00 PM75 °FThunderstorms. Passing clouds.10 mph50%29.71 "HgN/A
8:00 PM79 °FPassing clouds.17 mph54%29.68 "HgN/A
7:00 PM82 °FPassing clouds.1 mph58%29.65 "HgN/A
6:00 PM82 °FPassing clouds.3 mph58%29.65 "HgN/A
5:00 PM82 °FPassing clouds.1 mph58%29.65 "Hg5 mi
4:00 PM82 °FPassing clouds.6 mph58%29.68 "Hg5 mi
3:00 PM82 °FPassing clouds.3 mph58%29.71 "Hg4 mi
2:00 PM81 °FPassing clouds.3 mph62%29.74 "Hg5 mi
1:00 PM79 °FPassing clouds.3 mph61%29.74 "HgN/A
12:00 PM77 °FScattered clouds.3 mph61%29.77 "HgN/A
11:00 AM75 °FPassing clouds.3 mph61%29.80 "HgN/A
10:00 AM72 °FScattered clouds.6 mph73%29.80 "HgN/A
9:00 AM68 °FScattered clouds.3 mph83%29.80 "HgN/A
Weather by CustomWeather, © 2015

See weather overviewHow to use our weather pages